ZS1OA-5 Weather Reports


Display with metric or nautical units.
time (UTC)temp
F
wind
direction
speed
MPH
gust
MPH
rain 1hr
in
rain 24hr
in
rain mn
in
humidity
%
barometer
mb
20260509185513 60 6 5.0 9.0 0.00 0.16 0.16 25 998.8
20260509185014 60 0 4.0 7.0 0.00 0.16 0.16 25 998.8
20260509184518 60 357 3.0 3.0 0.00 0.16 0.16 24 998.8
20260509184015 60 299 5.0 8.0 0.00 0.16 0.16 24 998.8
20260509183516 61 300 4.0 4.0 0.00 0.16 0.16 24 998.8
20260509183015 61 327 3.0 3.0 0.00 0.16 0.16 22 998.8
20260509182515 61 10 5.0 7.0 0.00 0.16 0.16 22 998.8
20260509182015 61 353 3.0 10.0 0.00 0.16 0.16 21 998.8
20260509181514 61 298 6.0 6.0 0.00 0.16 0.16 19 998.8
20260509181013 61 297 5.0 7.0 0.00 0.16 0.16 19 998.8
20260509180518 61 342 3.0 5.0 0.00 0.16 0.16 19 998.8
20260509180013 61 16 5.0 5.0 0.00 0.16 0.16 19 998.8
20260509175513 61 330 3.0 3.0 0.00 0.16 0.16 16 998.8
20260509175017 61 316 4.0 5.0 0.00 0.16 0.16 16 998.8
20260509174519 61 319 7.0 8.0 0.00 0.16 0.16 16 999.8
20260509174016 61 313 5.0 6.0 0.00 0.16 0.16 14 999.8
20260509173557 61 24 3.0 4.0 0.00 0.16 0.16 14 999.8
20260509173514 61 24 3.0 4.0 0.00 0.16 0.16 14 999.8
20260509173016 61 338 5.0 7.0 0.00 0.16 0.16 14 999.8
20260509172518 62 312 5.0 6.0 0.00 0.16 0.16 14 999.8
20260509172015 62 4 4.0 8.0 0.00 0.16 0.16 11 999.8
20260509171514 62 298 7.0 7.0 0.00 0.16 0.16 11 999.8
20260509171014 62 345 5.0 7.0 0.00 0.16 0.16 11 999.8
20260509170515 62 7 5.0 7.0 0.00 0.16 0.16 11 999.8
20260509170014 62 308 9.0 10.0 0.00 0.16 0.16 11 999.8
20260509165514 63 353 5.0 9.0 0.00 0.16 0.16 11 999.8
20260509165014 63 335 6.0 6.0 0.00 0.16 0.16 8 999.8
20260509164516 63 331 5.0 7.0 0.00 0.16 0.16 8 999.8
20260509164013 63 304 5.0 8.0 0.00 0.16 0.16 8 999.8
20260509163515 63 297 9.0 9.0 0.00 0.16 0.16 8 999.8
20260509163014 63 280 4.0 7.0 0.00 0.16 0.16 8 999.8
20260509162515 63 299 5.0 5.0 0.00 0.16 0.16 8 999.8
20260509162014 63 263 3.0 5.0 0.00 0.16 0.16 8 999.8
20260509161514 63 289 6.0 7.0 0.00 0.16 0.16 8 999.8
20260509161013 63 293 5.0 5.0 0.00 0.16 0.16 8 999.8
20260509160514 63 275 4.0 8.0 0.00 0.16 0.16 8 999.8
20260509160013 63 311 7.0 10.0 0.00 0.16 0.16 8 999.8
20260509155515 63 226 3.0 9.0 0.00 0.16 0.16 8 999.8
20260509155016 63 207 5.0 7.0 0.00 0.16 0.16 8 999.8
20260509154514 63 286 5.0 5.0 0.00 0.16 0.16 8 999.8
20260509154014 63 287 5.0 7.0 0.00 0.16 0.16 8 999.8
20260509153514 63 277 3.0 5.0 0.00 0.16 0.16 8 999.8
20260509153014 63 230 9.0 9.0 0.00 0.16 0.16 8 999.8
20260509152513 64 279 5.0 7.0 0.00 0.16 0.16 8 999.8
20260509151515 64 303 5.0 5.0 0.00 0.16 0.16 8 999.8
20260509151015 64 270 4.0 5.0 0.00 0.16 0.16 8 999.8
20260509150515 64 285 5.0 5.0 0.00 0.16 0.16 8 999.8
20260509150014 65 286 5.0 8.0 0.00 0.16 0.16 8 999.8
20260509145514 65 278 3.0 6.0 0.00 0.16 0.16 8 999.8
20260509145014 65 264 10.0 10.0 0.00 0.16 0.16 8 999.8
20260509144514 65 271 5.0 7.0 0.00 0.16 0.16 8 999.8
20260509144016 65 229 7.0 7.0 0.00 0.16 0.16 8 999.8
20260509143514 65 272 5.0 5.0 0.00 0.16 0.16 8 999.8
20260509143017 65 298 5.0 5.0 0.00 0.16 0.16 8 999.8
20260509142516 66 275 5.0 5.0 0.00 0.16 0.16 8 999.8
20260509142014 66 289 3.0 5.0 0.00 0.16 0.16 8 999.8
20260509141513 66 286 5.0 7.0 0.00 0.16 0.16 8 999.8
20260509141016 66 301 8.0 8.0 0.00 0.16 0.16 7 999.8
20260509140517 67 286 3.0 5.0 0.00 0.16 0.16 7 999.8
20260509140014 67 283 7.0 7.0 0.00 0.16 0.16 7 999.8
20260509135514 67 310 7.0 9.0 0.00 0.16 0.16 7 999.8
20260509135015 68 264 7.0 8.0 0.00 0.16 0.16 7 999.8
20260509134515 68 271 7.0 7.0 0.00 0.16 0.16 7 999.8
20260509134016 68 245 8.0 8.0 0.00 0.16 0.16 7 999.8
20260509133514 68 297 3.0 5.0 0.00 0.16 0.16 7 999.8
20260509133015 68 265 5.0 5.0 0.00 0.16 0.16 7 999.8
20260509132514 68 256 5.0 9.0 0.00 0.16 0.16 7 999.8
20260509132016 68 308 11.0 11.0 0.00 0.16 0.16 7 999.8
20260509131514 68 268 5.0 8.0 0.00 0.16 0.16 7 999.8
20260509131014 68 303 4.0 9.0 0.00 0.16 0.16 7 999.8
20260509130514 68 297 7.0 7.0 0.00 0.16 0.16 7 999.8
20260509130015 68 272 5.0 7.0 0.00 0.16 0.16 7 1000.8
20260509125514 68 240 5.0 5.0 0.00 0.16 0.16 7 1000.8
20260509125014 68 310 5.0 7.0 0.00 0.16 0.16 7 1000.8
20260509124513 69 280 4.0 5.0 0.00 0.16 0.16 10 1000.8
20260509124015 69 313 2.0 8.0 0.00 0.16 0.16 10 1000.8
20260509123515 69 266 5.0 7.0 0.00 0.16 0.16 10 1000.8
20260509123018 69 266 3.0 4.0 0.00 0.16 0.16 10 1000.8
20260509122514 69 286 8.0 12.0 0.00 0.16 0.16 10 1000.8
20260509122014 68 311 5.0 7.0 0.00 0.16 0.16 10 1000.8
20260509121513 68 292 5.0 8.0 0.00 0.16 0.16 10 1001.8
20260509121013 67 281 5.0 9.0 0.00 0.16 0.16 7 1001.8
20260509120515 67 314 5.0 7.0 0.00 0.16 0.16 7 1001.8
20260509120015 67 315 10.0 11.0 0.16 0.16 0.16 7 1001.8
20260509115514 67 253 7.0 9.0 0.16 0.16 0.16 10 1001.8
20260509115016 68 287 6.0 8.0 0.16 0.16 0.16 10 1001.8
20260509114514 68 312 8.0 8.0 0.16 0.16 0.16 10 1001.8
20260509114014 68 292 10.0 10.0 0.16 0.16 0.16 10 1001.8
20260509113514 68 278 7.0 11.0 0.16 0.16 0.16 10 1001.8
20260509113016 67 295 14.0 14.0 0.16 0.16 0.16 10 1002.8
20260509112514 67 293 5.0 7.0 0.16 0.16 0.16 10 1002.8
20260509112007 67 299 5.0 13.0 0.16 0.16 0.16 10 1002.8